Station Historical Data
 
Daily Summary for March 19, 2019 Units:  English    Metric   Both
« Previous Day
Next Day »
Daily Weekly Monthly Yearly Custom
  Current: High: Low: Average:
Temperature: 56.8 °F TemperatureF °F 27.6 °F 43.1 °F
Dew Point: 22.2 °F DewpointF °F 21.2 °F 24.5 °F
Humidity: 26 % Humidity % 23 % 54 %
Wind Speed: 2.3 mph WindSpeedMPH mph 0.0 mph 1.7 mph
Wind Gust: 0.7 mph WindSpeedGustMPH mph - -
Wind:ESE - - South
Pressure: 30.32 in PressureIn in 30.32 in -
Precipitation: 0.00 in      
Historical Graphs
 
 
Tabular Data for March 19, 2019
Time Temperature Dew Point Pressure Wind Wind Speed Wind Gust Humidity Rainfall Rate (Hourly) solar Conditions
TemperatureF °F DewpointF °F PressureIn in Calm     Humidity % HourlyPrecipIn in SolarRadiationWatts/m^2 W/m2 Conditions
00:04 38.2 °F 23.0 °F 30.40 in Calm     54 % 0.00 in 0.00 W/m2 OVC
00:09 38.0 °F 23.3 °F 30.40 in Calm     55 % 0.00 in 0.00 W/m2 OVC
00:14 37.8 °F 24.7 °F 30.40 in Calm     59 % 0.00 in 0.00 W/m2 OVC
00:19 37.7 °F 23.4 °F 30.40 in Calm     56 % 0.00 in 0.00 W/m2 OVC
00:24 37.5 °F 23.2 °F 30.40 in Calm     56 % 0.00 in 0.00 W/m2 OVC
00:29 37.5 °F 23.2 °F 30.39 in Calm     56 % 0.00 in 0.00 W/m2 OVC
00:34 37.4 °F 23.5 °F 30.40 in Calm     57 % 0.00 in 0.00 W/m2 OVC
00:39 37.3 °F 23.9 °F 30.39 in Calm     58 % 0.00 in 0.00 W/m2 OVC
00:44 37.1 °F 23.3 °F 30.39 in Calm     57 % 0.00 in 0.00 W/m2 OVC
00:49 37.0 °F 24.4 °F 30.39 in Calm     60 % 0.00 in 0.00 W/m2 OVC
00:54 36.6 °F 25.2 °F 30.39 in Calm     63 % 0.00 in 0.00 W/m2 OVC
00:59 36.4 °F 24.6 °F 30.39 in Calm     62 % 0.00 in 0.00 W/m2 OVC
01:04 36.2 °F 24.8 °F 30.39 in Calm     63 % 0.00 in 0.00 W/m2 OVC
01:09 36.0 °F 24.2 °F 30.39 in Calm     62 % 0.00 in 0.00 W/m2 OVC
01:14 35.9 °F 24.5 °F 30.39 in Calm     63 % 0.00 in 0.00 W/m2 OVC
01:19 35.8 °F 25.2 °F 30.39 in North 1.2 mph 0.9 mph 65 % 0.00 in 0.00 W/m2 OVC
01:24 35.6 °F 25.4 °F 30.39 in Calm     66 % 0.00 in 0.00 W/m2 OVC
01:29 35.3 °F 25.1 °F 30.39 in Calm     66 % 0.00 in 0.00 W/m2 OVC
01:34 35.1 °F 25.2 °F 30.39 in East 2.3 mph 0.5 mph 67 % 0.00 in 0.00 W/m2 OVC
01:39 35.0 °F 24.4 °F 30.40 in Calm     65 % 0.00 in 0.00 W/m2 OVC
01:44 34.9 °F 25.4 °F 30.39 in ESE 1.2 mph   68 % 0.00 in 0.00 W/m2 OVC
01:49 34.8 °F 25.7 °F 30.39 in Calm     69 % 0.00 in 0.00 W/m2 OVC
01:54 34.6 °F 25.8 °F 30.39 in SSE 2.0 mph 0.6 mph 70 % 0.00 in 0.00 W/m2 OVC
01:59 34.1 °F 25.3 °F 30.39 in SSE 1.2 mph   70 % 0.00 in 0.00 W/m2 OVC
02:04 33.7 °F 25.3 °F 30.39 in Calm     71 % 0.00 in 0.00 W/m2 OVC
02:09 33.4 °F 25.3 °F 30.39 in Calm     72 % 0.00 in 0.00 W/m2 OVC
02:14 33.2 °F 25.5 °F 30.39 in Calm     73 % 0.00 in 0.00 W/m2 OVC
02:19 32.9 °F 25.5 °F 30.39 in Calm     74 % 0.00 in 0.00 W/m2 OVC
02:24 32.6 °F 25.6 °F 30.39 in Calm     75 % 0.00 in 0.00 W/m2 OVC
02:29 32.5 °F 25.5 °F 30.38 in Calm     75 % 0.00 in 0.00 W/m2 OVC
02:34 32.3 °F 25.3 °F 30.38 in Calm     75 % 0.00 in 0.00 W/m2 OVC
02:39 32.2 °F 25.2 °F 30.39 in Calm     75 % 0.00 in 0.00 W/m2 OVC
02:44 32.1 °F 25.4 °F 30.38 in Calm     76 % 0.00 in 0.00 W/m2 OVC
02:49 32.1 °F 25.1 °F 30.38 in Calm     75 % 0.00 in 0.00 W/m2 OVC
02:54 32.1 °F 24.7 °F 30.38 in Calm     74 % 0.00 in 0.00 W/m2 OVC
02:59 32.1 °F 24.4 °F 30.38 in Calm     73 % 0.00 in 0.00 W/m2 OVC
03:04 32.2 °F 24.5 °F 30.38 in Calm     73 % 0.00 in 0.00 W/m2 OVC
03:09 32.2 °F 23.5 °F 30.38 in Calm     70 % 0.00 in 0.00 W/m2 OVC
03:14 32.3 °F 24.6 °F 30.38 in Calm     73 % 0.00 in 0.00 W/m2 OVC
03:19 32.4 °F 24.0 °F 30.37 in Calm     71 % 0.00 in 0.00 W/m2 OVC
03:24 32.4 °F 24.0 °F 30.37 in Calm     71 % 0.00 in 0.00 W/m2 OVC
03:29 32.4 °F 24.4 °F 30.37 in Calm     72 % 0.00 in 0.00 W/m2 OVC
03:34 32.3 °F 24.3 °F 30.37 in Calm     72 % 0.00 in 0.00 W/m2 OVC
03:39 32.2 °F 24.5 °F 30.37 in Calm     73 % 0.00 in 0.00 W/m2 OVC
03:44 32.1 °F 24.7 °F 30.37 in Calm     74 % 0.00 in 0.00 W/m2 OVC
03:49 31.9 °F 24.9 °F 30.37 in Calm     75 % 0.00 in 0.00 W/m2 OVC
03:54 31.7 °F 25.0 °F 30.37 in Calm     76 % 0.00 in 0.00 W/m2 OVC
03:59 31.5 °F 24.5 °F 30.37 in Calm     75 % 0.00 in 0.00 W/m2 OVC
04:04 31.4 °F 24.4 °F 30.37 in Calm     75 % 0.00 in 0.00 W/m2 OVC
04:09 31.3 °F 24.6 °F 30.38 in Calm     76 % 0.00 in 0.00 W/m2 OVC
04:14 31.2 °F 24.8 °F 30.38 in Calm     77 % 0.00 in 0.00 W/m2 OVC
04:19 31.1 °F 24.4 °F 30.38 in Calm     76 % 0.00 in 0.00 W/m2 OVC
04:24 31.1 °F 24.4 °F 30.38 in Calm     76 % 0.00 in 0.00 W/m2 OVC
04:29 31.0 °F 24.6 °F 30.38 in Calm     77 % 0.00 in 0.00 W/m2 OVC
04:34 31.0 °F 24.3 °F 30.38 in Calm     76 % 0.00 in 0.00 W/m2 OVC
04:39 31.0 °F 24.0 °F 30.38 in Calm     75 % 0.00 in 0.00 W/m2 OVC
04:44 31.0 °F 24.3 °F 30.38 in Calm     76 % 0.00 in 0.00 W/m2 OVC
04:49 31.0 °F 24.6 °F 30.38 in Calm     77 % 0.00 in 0.00 W/m2 OVC
04:54 31.0 °F 24.6 °F 30.39 in Calm     77 % 0.00 in 0.00 W/m2 OVC
04:59 31.0 °F 24.3 °F 30.39 in Calm     76 % 0.00 in 0.00 W/m2 OVC
05:04 30.9 °F 24.5 °F 30.39 in Calm     77 % 0.00 in 0.00 W/m2 OVC
05:09 30.8 °F 24.7 °F 30.39 in Calm     78 % 0.00 in 0.00 W/m2 OVC
05:14 30.7 °F 25.0 °F 30.39 in Calm     79 % 0.00 in 0.00 W/m2 OVC
05:19 30.7 °F 25.0 °F 30.39 in Calm     79 % 0.00 in 0.00 W/m2 OVC
05:24 30.6 °F 24.2 °F 30.39 in Calm     77 % 0.00 in 0.00 W/m2 OVC
05:29 30.4 °F 24.1 °F 30.39 in Calm     77 % 0.00 in 0.00 W/m2 OVC
05:34 30.3 °F 24.6 °F 30.39 in Calm     79 % 0.00 in 0.00 W/m2 OVC
05:39 30.2 °F 24.5 °F 30.40 in Calm     79 % 0.00 in 0.00 W/m2 OVC
05:44 30.1 °F 24.4 °F 30.40 in Calm     79 % 0.00 in 0.00 W/m2 OVC
05:49 30.0 °F 24.6 °F 30.40 in Calm     80 % 0.00 in 0.00 W/m2 OVC
05:54 29.9 °F 24.5 °F 30.40 in Calm     80 % 0.00 in 0.00 W/m2 OVC
05:59 29.7 °F 24.3 °F 30.40 in Calm     80 % 0.00 in 0.00 W/m2 OVC
06:04 29.5 °F 24.1 °F 30.41 in Calm     80 % 0.00 in 0.00 W/m2 OVC
06:09 29.3 °F 23.9 °F 30.41 in Calm     80 % 0.00 in 0.00 W/m2 OVC
06:14 29.3 °F 23.9 °F 30.41 in Calm     80 % 0.00 in 0.00 W/m2 OVC
06:19 29.2 °F 23.8 °F 30.42 in Calm     80 % 0.00 in 0.00 W/m2 OVC
06:24 29.3 °F 24.2 °F 30.42 in Calm     81 % 0.00 in 0.00 W/m2 OVC
06:29 29.2 °F 24.1 °F 30.42 in Calm     81 % 0.00 in 0.00 W/m2 OVC
06:34 28.9 °F 24.4 °F 30.42 in Calm     83 % 0.00 in 0.00 W/m2 OVC
06:39 28.6 °F 24.1 °F 30.43 in Calm     83 % 0.00 in 0.00 W/m2 OVC
06:45 28.2 °F 24.0 °F 30.43 in Calm     84 % 0.00 in 0.00 W/m2 OVC
06:49 27.9 °F 24.0 °F 30.43 in Calm     85 % 0.00 in 0.00 W/m2 OVC
06:54 27.8 °F 23.9 °F 30.43 in Calm     85 % 0.00 in 0.00 W/m2 OVC
06:59 27.7 °F 24.1 °F 30.43 in Calm     86 % 0.00 in 5.00 W/m2 OVC
07:04 27.6 °F 24.0 °F 30.43 in Calm     86 % 0.00 in 7.00 W/m2 OVC
07:09 27.6 °F 24.0 °F 30.44 in Calm     86 % 0.00 in 11.00 W/m2 OVC
07:14 27.6 °F 24.2 °F 30.44 in Calm     87 % 0.00 in 12.00 W/m2 OVC
07:19 27.7 °F 24.3 °F 30.45 in Calm     87 % 0.00 in 14.00 W/m2 OVC
07:24 27.8 °F 24.4 °F 30.45 in Calm     87 % 0.00 in 16.00 W/m2 OVC
07:29 28.0 °F 24.6 °F 30.45 in Calm     87 % 0.00 in 18.00 W/m2 OVC
07:34 28.1 °F 24.7 °F 30.45 in Calm     87 % 0.00 in 19.00 W/m2 OVC
07:39 28.3 °F 24.9 °F 30.46 in Calm     87 % 0.00 in 21.00 W/m2 OVC
07:44 28.5 °F 25.1 °F 30.46 in Calm     87 % 0.00 in 23.00 W/m2 OVC
07:49 28.7 °F 25.3 °F 30.46 in Calm     87 % 0.00 in 28.00 W/m2 OVC
07:54 28.8 °F 25.4 °F 30.47 in Calm     87 % 0.00 in 30.00 W/m2 OVC
07:59 29.0 °F 25.9 °F 30.46 in Calm     88 % 0.00 in 32.00 W/m2 OVC
08:04 29.3 °F 26.2 °F 30.47 in Calm     88 % 0.00 in 40.00 W/m2 OVC
08:09 29.6 °F 26.5 °F 30.47 in Calm     88 % 0.00 in 33.00 W/m2 OVC
08:14 29.8 °F 26.7 °F 30.47 in Calm     88 % 0.00 in 46.00 W/m2 OVC
08:19 30.2 °F 27.1 °F 30.47 in Calm     88 % 0.00 in 60.00 W/m2 OVC
08:24 30.6 °F 27.2 °F 30.47 in Calm     87 % 0.00 in 162.00 W/m2 OVC
08:29 31.2 °F 27.5 °F 30.47 in Calm     86 % 0.00 in 93.00 W/m2 OVC
08:34 31.8 °F 27.8 °F 30.47 in Calm     85 % 0.00 in 83.00 W/m2 OVC
08:39 32.3 °F 27.7 °F 30.47 in Calm     83 % 0.00 in 54.00 W/m2 OVC
08:44 33.0 °F 28.1 °F 30.47 in Calm     82 % 0.00 in 37.00 W/m2 OVC
08:49 33.8 °F 28.3 °F 30.47 in Calm     80 % 0.00 in 37.00 W/m2 OVC
08:54 34.7 °F 28.2 °F 30.47 in Calm     77 % 0.00 in 39.00 W/m2 OVC
08:59 35.4 °F 27.9 °F 30.47 in Calm     74 % 0.00 in 39.00 W/m2 OVC
09:04 36.2 °F 27.7 °F 30.47 in Calm     71 % 0.00 in 39.00 W/m2 OVC
09:09 36.9 °F 27.7 °F 30.47 in Calm     69 % 0.00 in 39.00 W/m2 OVC
09:14 37.6 °F 26.9 °F 30.47 in North 3.0 mph 1.9 mph 65 % 0.00 in 40.00 W/m2 OVC
09:19 38.3 °F 26.4 °F 30.47 in North 2.3 mph 0.6 mph 62 % 0.00 in 40.00 W/m2 OVC
09:24 39.0 °F 26.3 °F 30.47 in North 3.5 mph 1.3 mph 60 % 0.00 in 42.00 W/m2 OVC
09:29 39.6 °F 26.0 °F 30.47 in North 2.3 mph 0.6 mph 58 % 0.00 in 211.00 W/m2 OVC
09:34 40.3 °F 25.8 °F 30.47 in NNW 3.5 mph 1.5 mph 56 % 0.00 in 218.00 W/m2 OVC
09:39 41.0 °F 26.9 °F 30.47 in NNW 1.2 mph   57 % 0.00 in 199.00 W/m2 OVC
09:44 41.7 °F 28.4 °F 30.47 in Calm     59 % 0.00 in 169.00 W/m2 OVC
09:49 42.5 °F 28.3 °F 30.47 in Calm     57 % 0.00 in 97.00 W/m2 OVC
09:54 43.3 °F 28.2 °F 30.48 in NNE 3.5 mph 1.7 mph 55 % 0.00 in 109.00 W/m2 OVC
09:59 44.0 °F 28.4 °F 30.48 in North 3.5 mph 1.4 mph 54 % 0.00 in 410.00 W/m2 OVC
10:04 44.7 °F 28.1 °F 30.47 in ESE 2.3 mph 1.3 mph 52 % 0.00 in 454.00 W/m2 OVC
10:09 45.6 °F 28.0 °F 30.47 in North 3.5 mph 2.6 mph 50 % 0.00 in 497.00 W/m2 OVC
10:14 46.4 °F 28.3 °F 30.48 in NW 3.5 mph 1.5 mph 49 % 0.00 in 547.00 W/m2 OVC
10:19 47.2 °F 29.0 °F 30.48 in NW 2.3 mph 1.4 mph 49 % 0.00 in 584.00 W/m2 OVC
10:24 48.1 °F 27.7 °F 30.47 in NNW 3.5 mph 2.3 mph 45 % 0.00 in 615.00 W/m2 OVC
10:29 49.0 °F 27.5 °F 30.47 in East 5.8 mph 1.5 mph 43 % 0.00 in 638.00 W/m2 OVC
10:34 49.7 °F 25.7 °F 30.47 in WNW 3.5 mph 3.5 mph 39 % 0.00 in 652.00 W/m2 OVC
10:39 50.3 °F 25.0 °F 30.47 in ESE 3.5 mph 2.5 mph 37 % 0.00 in 666.00 W/m2 OVC
10:44 51.0 °F 25.6 °F 30.47 in NW 4.6 mph 3.6 mph 37 % 0.00 in 679.00 W/m2 OVC
10:49 51.4 °F 23.2 °F 30.46 in North 5.8 mph 3.8 mph 33 % 0.00 in 694.00 W/m2 OVC
10:54 51.7 °F 23.5 °F 30.46 in East 4.0 mph 2.4 mph 33 % 0.00 in 705.00 W/m2 OVC
10:59 51.9 °F 24.4 °F 30.46 in NNW 4.0 mph 2.0 mph 34 % 0.00 in 710.00 W/m2 OVC
11:04 52.3 °F 24.0 °F 30.46 in NNE 5.0 mph 2.7 mph 33 % 0.00 in 722.00 W/m2 OVC
11:09 52.8 °F 24.5 °F 30.46 in NNW 3.5 mph 2.9 mph 33 % 0.00 in 733.00 W/m2 OVC
11:14 53.2 °F 24.8 °F 30.46 in NNW 4.6 mph 2.6 mph 33 % 0.00 in 738.00 W/m2 OVC
11:19 53.5 °F 25.8 °F 30.46 in NNW 2.3 mph 2.2 mph 34 % 0.00 in 747.00 W/m2 OVC
11:24 53.8 °F 23.8 °F 30.46 in NNW 5.0 mph 3.9 mph 31 % 0.00 in 758.00 W/m2 OVC
11:29 53.9 °F 26.1 °F 30.46 in SE 3.5 mph 1.6 mph 34 % 0.00 in 765.00 W/m2 OVC
11:34 54.0 °F 24.0 °F 30.46 in East 3.5 mph 3.4 mph 31 % 0.00 in 768.00 W/m2 OVC
11:39 54.0 °F 24.0 °F 30.45 in NNE 3.5 mph 2.4 mph 31 % 0.00 in 775.00 W/m2 OVC
11:44 54.3 °F 24.3 °F 30.45 in NE 3.5 mph 2.3 mph 31 % 0.00 in 786.00 W/m2 OVC
11:49 54.5 °F 22.9 °F 30.45 in North 4.0 mph 2.0 mph 29 % 0.00 in 791.00 W/m2 OVC
11:54 54.7 °F 23.0 °F 30.45 in NNW 4.6 mph 2.3 mph 29 % 0.00 in 795.00 W/m2 OVC
11:59 54.9 °F 24.0 °F 30.45 in NNE 3.5 mph 2.9 mph 30 % 0.00 in 800.00 W/m2 OVC
12:04 55.2 °F 23.5 °F 30.45 in NW 4.6 mph 3.1 mph 29 % 0.00 in 803.00 W/m2 OVC
12:09 55.2 °F 24.3 °F 30.45 in East 6.0 mph 2.1 mph 30 % 0.00 in 807.00 W/m2 OVC
12:14 55.4 °F 23.6 °F 30.44 in West 3.5 mph 2.5 mph 29 % 0.00 in 810.00 W/m2 OVC
12:19 55.7 °F 24.7 °F 30.44 in NE 3.5 mph 1.8 mph 30 % 0.00 in 814.00 W/m2 OVC
12:24 56.1 °F 24.2 °F 30.44 in NW 3.5 mph 3.0 mph 29 % 0.00 in 814.00 W/m2 OVC
12:29 56.3 °F 25.2 °F 30.44 in North 4.6 mph 2.8 mph 30 % 0.00 in 816.00 W/m2 OVC
12:34 56.3 °F 23.6 °F 30.44 in ENE 6.9 mph 3.5 mph 28 % 0.00 in 821.00 W/m2 OVC
12:39 56.1 °F 22.5 °F 30.43 in SSE 2.3 mph 1.4 mph 27 % 0.00 in 823.00 W/m2 OVC
12:44 56.2 °F 22.6 °F 30.43 in North 3.5 mph 1.5 mph 27 % 0.00 in 824.00 W/m2 OVC
12:49 56.6 °F 24.7 °F 30.43 in ESE 3.5 mph 3.0 mph 29 % 0.00 in 826.00 W/m2 OVC
12:54 56.9 °F 24.9 °F 30.43 in NW 2.3 mph 1.9 mph 29 % 0.00 in 824.00 W/m2 OVC
12:59 57.3 °F 23.6 °F 30.43 in NNE 3.5 mph 1.7 mph 27 % 0.00 in 824.00 W/m2 OVC
13:04 57.3 °F 22.7 °F 30.42 in NNW 4.6 mph 3.2 mph 26 % 0.00 in 824.00 W/m2 OVC
13:09 56.8 °F 23.1 °F 30.41 in East 3.5 mph 1.9 mph 27 % 0.00 in 824.00 W/m2 OVC
13:14 56.9 °F 22.3 °F 30.41 in ESE 6.9 mph 4.1 mph 26 % 0.00 in 823.00 W/m2 OVC
13:19 56.9 °F 23.2 °F 30.41 in North 3.5 mph 2.4 mph 27 % 0.00 in 821.00 W/m2 OVC
13:25 57.1 °F 22.5 °F 30.40 in SE 3.5 mph 1.9 mph 26 % 0.00 in 817.00 W/m2 OVC
13:29 57.2 °F 25.2 °F 30.40 in NNW 5.8 mph 2.5 mph 29 % 0.00 in 816.00 W/m2 OVC
13:34 57.5 °F 23.7 °F 30.40 in NW 3.5 mph 2.6 mph 27 % 0.00 in 812.00 W/m2 OVC
13:39 57.7 °F 23.9 °F 30.40 in NE 4.6 mph 2.1 mph 27 % 0.00 in 809.00 W/m2 OVC
13:44 57.4 °F 22.8 °F 30.40 in NNE 3.5 mph 2.3 mph 26 % 0.00 in 803.00 W/m2 OVC
13:49 57.8 °F 24.0 °F 30.39 in SW 3.5 mph 1.9 mph 27 % 0.00 in 802.00 W/m2 OVC
13:54 58.1 °F 24.3 °F 30.39 in NNE 2.3 mph 0.5 mph 27 % 0.00 in 809.00 W/m2 OVC
13:59 58.1 °F 22.4 °F 30.39 in ESE 3.5 mph 2.2 mph 25 % 0.00 in 715.00 W/m2 OVC
14:04 58.1 °F 24.3 °F 30.38 in ESE 6.0 mph 2.7 mph 27 % 0.00 in 789.00 W/m2 OVC
14:09 58.1 °F 23.3 °F 30.38 in ENE 5.8 mph 3.1 mph 26 % 0.00 in 779.00 W/m2 OVC
14:14 58.0 °F 22.3 °F 30.38 in ESE 3.5 mph 2.2 mph 25 % 0.00 in 772.00 W/m2 OVC
14:19 58.3 °F 24.4 °F 30.37 in NNW 3.5 mph 2.6 mph 27 % 0.00 in 763.00 W/m2 OVC
14:24 58.5 °F 24.6 °F 30.37 in North 4.6 mph 2.8 mph 27 % 0.00 in 758.00 W/m2 OVC
14:29 58.5 °F 22.8 °F 30.37 in NNE 5.8 mph 2.7 mph 25 % 0.00 in 744.00 W/m2 OVC
14:34 58.5 °F 22.8 °F 30.37 in NNE 3.5 mph 2.2 mph 25 % 0.00 in 738.00 W/m2 OVC
14:39 58.5 °F 25.5 °F 30.36 in ESE 3.5 mph 2.0 mph 28 % 0.00 in 726.00 W/m2 OVC
14:44 58.8 °F 23.9 °F 30.36 in North 3.5 mph 1.3 mph 26 % 0.00 in 719.00 W/m2 OVC
14:49 59.2 °F 23.4 °F 30.36 in West 3.5 mph 2.2 mph 25 % 0.00 in 710.00 W/m2 OVC
14:54 59.3 °F 24.4 °F 30.36 in South 4.0 mph 1.3 mph 26 % 0.00 in 696.00 W/m2 OVC
14:59 59.4 °F 24.5 °F 30.35 in NNE 9.2 mph 3.4 mph 26 % 0.00 in 691.00 W/m2 OVC
15:04 59.5 °F 24.5 °F 30.35 in North 2.3 mph 2.1 mph 26 % 0.00 in 679.00 W/m2 OVC
15:09 59.5 °F 23.6 °F 30.35 in East 3.5 mph 2.0 mph 25 % 0.00 in 670.00 W/m2 OVC
15:14 59.6 °F 23.7 °F 30.35 in North 4.0 mph 2.0 mph 25 % 0.00 in 656.00 W/m2 OVC
15:19 59.6 °F 24.6 °F 30.35 in ESE 3.5 mph 1.3 mph 26 % 0.00 in 643.00 W/m2 OVC
15:24 59.9 °F 25.8 °F 30.35 in North 2.3 mph 1.6 mph 27 % 0.00 in 628.00 W/m2 OVC
15:29 59.8 °F 21.9 °F 30.35 in NNE 4.6 mph 3.4 mph 23 % 0.00 in 619.00 W/m2 OVC
15:34 59.7 °F 22.8 °F 30.35 in NW 3.5 mph 2.3 mph 24 % 0.00 in 605.00 W/m2 OVC
15:39 59.7 °F 25.6 °F 30.35 in North 3.5 mph 2.2 mph 27 % 0.00 in 594.00 W/m2 OVC
15:44 59.6 °F 23.7 °F 30.35 in West 3.5 mph 2.5 mph 25 % 0.00 in 580.00 W/m2 OVC
15:49 59.7 °F 23.8 °F 30.35 in West 3.5 mph 2.0 mph 25 % 0.00 in 568.00 W/m2 OVC
15:55 59.8 °F 24.8 °F 30.35 in WNW 2.3 mph 0.3 mph 26 % 0.00 in 552.00 W/m2 OVC
15:59 60.1 °F 24.1 °F 30.34 in NW 2.3 mph 0.9 mph 25 % 0.00 in 533.00 W/m2 OVC
16:04 60.4 °F 24.4 °F 30.34 in NNW 4.6 mph 3.4 mph 25 % 0.00 in 519.00 W/m2 OVC
16:09 60.4 °F 24.4 °F 30.34 in NE 2.3 mph 0.8 mph 25 % 0.00 in 504.00 W/m2 OVC
16:14 60.5 °F 24.5 °F 30.34 in NE 3.5 mph 2.0 mph 25 % 0.00 in 489.00 W/m2 OVC
16:19 60.1 °F 23.1 °F 30.34 in NW 3.5 mph 0.6 mph 24 % 0.00 in 475.00 W/m2 OVC
16:24 60.1 °F 24.1 °F 30.34 in North 2.0 mph 0.8 mph 25 % 0.00 in 459.00 W/m2 OVC
16:29 60.3 °F 23.3 °F 30.33 in NW 3.5 mph 1.4 mph 24 % 0.00 in 443.00 W/m2 OVC
16:35 60.4 °F 23.4 °F 30.33 in WNW 1.2 mph 0.7 mph 24 % 0.00 in 345.00 W/m2 OVC
16:39 60.2 °F 22.2 °F 30.33 in North 3.5 mph 2.0 mph 23 % 0.00 in 190.00 W/m2 OVC
16:44 60.2 °F 23.2 °F 30.33 in North 2.3 mph 1.8 mph 24 % 0.00 in 181.00 W/m2 OVC
16:49 59.8 °F 21.9 °F 30.33 in West 2.0 mph 0.6 mph 23 % 0.00 in 158.00 W/m2 OVC
16:54 59.4 °F 25.4 °F 30.34 in NNW 3.0 mph 0.5 mph 27 % 0.00 in 195.00 W/m2 OVC
16:59 58.9 °F 22.1 °F 30.33 in NNE 3.5 mph 1.7 mph 24 % 0.00 in 130.00 W/m2 OVC
17:04 58.5 °F 21.8 °F 30.33 in NNW 2.3 mph 0.4 mph 24 % 0.00 in 236.00 W/m2 OVC
17:09 58.4 °F 23.6 °F 30.33 in NNW 2.3 mph   26 % 0.00 in 97.00 W/m2 OVC
17:14 58.4 °F 21.7 °F 30.32 in WNW 3.5 mph 2.2 mph 24 % 0.00 in 193.00 W/m2 OVC
17:19 58.3 °F 21.6 °F 30.32 in NW 3.5 mph 0.7 mph 24 % 0.00 in 153.00 W/m2 OVC
17:24 58.2 °F 22.5 °F 30.32 in Calm     25 % 0.00 in 125.00 W/m2 OVC
17:29 57.8 °F 21.2 °F 30.32 in NNE 3.5 mph 1.4 mph 24 % 0.00 in 54.00 W/m2 OVC
17:34 57.5 °F 21.9 °F 30.32 in NNE 2.3 mph 1.2 mph 25 % 0.00 in 105.00 W/m2 OVC
17:39 57.2 °F 21.6 °F 30.32 in NNE 2.3 mph 0.3 mph 25 % 0.00 in 86.00 W/m2 OVC
17:44 57.1 °F 22.5 °F 30.32 in East 2.3 mph 0.4 mph 26 % 0.00 in 62.00 W/m2 OVC
17:49 57.1 °F 22.5 °F 30.33 in East 2.3 mph 0.1 mph 26 % 0.00 in 47.00 W/m2 OVC
17:54 56.9 °F 22.3 °F 30.33 in East 1.2 mph   26 % 0.00 in 44.00 W/m2 OVC
17:59 56.8 °F 22.2 °F 30.32 in ESE 2.3 mph 0.7 mph 26 % 0.00 in 30.00 W/m2 OVC
Murfreesboro Weather Live
Compliments of Weather Underground - 2.25 mb